QPF
0.02 0.01 0.01 0.01 0.01 0.02 0.02 0.02 0.03 0.04 0.06 0.07 0.09 0.08 0.06 0.04 0.05 0.06 0.05 0.04 0.03 0.03 0.03 0.02 0.01 0.01 0.01 0.01 0.01 0.01 0.01 0.01 0.01 0.01 0.02 0.02 0.01 0.02 0.01 0.01 0.01 0.02 0.02
0.02 0.01 0.01 0.01 0.01 0.02 0.02 0.02 0.03 0.03 0.03 0.04 0.04 0.03 0.03 0.03 0.04 0.05 0.05 0.04 0.04 0.03 0.02 0.01 0.01 0.01 0.01 0.00 0.01 0.01 0.01 0.01 0.02 0.01 0.01 0.01 0.01 0.01 0.01 0.01 0.00 0.01 0.02
0.02 0.02 0.02 0.01 0.01 0.01 0.02 0.02 0.03 0.03 0.02 0.02 0.02 0.02 0.03 0.03 0.03 0.04 0.04 0.03 0.03 0.03 0.02 0.01 0.01 0.01 0.01 0.01 0.01 0.01 0.01 0.01 0.02 0.01 0.00 0.00 0.00 0.00 0.00 0.00 0.00 0.00 0.01
0.02 0.01 0.01 0.01 0.02 0.01 0.02 0.02 0.02 0.03 0.02 0.02 0.02 0.02 0.03 0.03 0.03 0.04 0.03 0.02 0.02 0.02 0.02 0.02 0.02 0.01 0.01 0.01 0.01 0.01 0.01 0.01 0.01 0.01 0.01 0.01 0.01 0.01 0.00 0.00 0.00 0.00 0.00
0.02 0.01 0.01 0.01 0.01 0.02 0.02 0.02 0.03 0.03 0.03 0.03 0.03 0.03 0.03 0.03 0.02 0.03 0.03 0.03 0.02 0.02 0.03 0.03 0.03 0.03 0.02 0.01 0.01 0.01 0.01 0.01 0.01 0.02 0.02 0.01 0.01 0.01 0.01 0.01 0.00 0.00 0.00
0.02 0.01 0.02 0.01 0.01 0.01 0.02 0.03 0.02 0.02 0.04 0.04 0.03 0.03 0.03 0.02 0.03 0.03 0.04 0.03 0.02 0.03 0.02 0.02 0.01 0.02 0.02 0.02 0.02 0.01 0.01 0.01 0.01 0.02 0.01 0.01 0.00 0.01 0.01 0.01 0.01 0.01 0.01
0.02 0.02 0.02 0.02 0.02 0.02 0.02 0.02 0.02 0.03 0.03 0.03 0.04 0.04 0.03 0.03 0.04 0.03 0.04 0.03 0.03 0.03 0.03 0.02 0.01 0.01 0.01 0.01 0.02 0.02 0.02 0.02 0.02 0.03 0.02 0.01 0.01 0.01 0.01 0.01 0.01 0.01 0.01
0.02 0.02 0.03 0.04 0.03 0.02 0.02 0.03 0.04 0.04 0.03 0.03 0.03 0.03 0.04 0.04 0.04 0.04 0.04 0.04 0.02 0.02 0.02 0.01 0.02 0.02 0.03 0.03 0.03 0.02 0.02 0.02 0.02 0.02 0.01 0.01 0.01 0.01 0.01 0.01 0.01 0.01 0.01
0.02 0.02 0.03 0.04 0.04 0.03 0.04 0.06 0.05 0.04 0.03 0.04 0.03 0.03 0.03 0.04 0.04 0.04 0.03 0.02 0.01 0.02 0.02 0.02 0.02 0.02 0.03 0.05 0.04 0.03 0.02 0.02 0.02 0.02 0.01 0.01 0.01 0.01 0.01 0.01 0.01 0.01 0.01
0.01 0.02 0.02 0.03 0.05 0.06 0.06 0.05 0.04 0.03 0.04 0.04 0.04 0.04 0.04 0.03 0.03 0.02 0.01 0.01 0.01 0.01 0.01 0.01 0.02 0.02 0.02 0.04 0.03 0.03 0.03 0.02 0.02 0.02 0.02 0.02 0.02 0.02 0.02 0.02 0.02 0.02 0.02
0.02 0.02 0.02 0.03 0.05 0.06 0.06 0.05 0.04 0.04 0.04 0.05 0.05 0.04 0.04 0.03 0.03 0.02 0.02 0.01 0.01 0.01 0.01 0.02 0.02 0.02 0.03 0.03 0.03 0.02 0.02 0.03 0.04 0.03 0.02 0.02 0.02 0.02 0.02 0.02 0.02 0.02 0.02
0.01 0.01 0.02 0.02 0.03 0.05 0.05 0.04 0.04 0.04 0.05 0.05 0.03 0.03 0.03 0.02 0.02 0.02 0.02 0.01 0.01 0.01 0.01 0.01 0.01 0.02 0.02 0.02 0.01 0.02 0.03 0.04 0.04 0.04 0.03 0.03 0.03 0.03 0.03 0.03 0.03 0.03 0.02
0.01 0.01 0.01 0.02 0.02 0.03 0.04 0.04 0.04 0.04 0.05 0.04 0.03 0.03 0.02 0.02 0.01 0.01 0.01 0.02 0.02 0.01 0.02 0.03 0.03 0.02 0.01 0.01 0.01 0.02 0.02 0.03 0.03 0.03 0.03 0.03 0.04 0.04 0.05 0.04 0.03 0.02 0.02
0.01 0.01 0.02 0.02 0.02 0.02 0.03 0.04 0.05 0.05 0.05 0.04 0.04 0.04 0.03 0.02 0.01 0.01 0.01 0.01 0.01 0.02 0.02 0.03 0.03 0.03 0.02 0.01 0.01 0.02 0.02 0.03 0.03 0.03 0.03 0.03 0.04 0.04 0.05 0.05 0.04 0.03 0.02
0.02 0.02 0.02 0.02 0.03 0.03 0.04 0.04 0.05 0.05 0.07 0.08 0.07 0.06 0.06 0.04 0.02 0.01 0.01 0.01 0.01 0.02 0.02 0.02 0.02 0.03 0.02 0.01 0.01 0.01 0.03 0.03 0.03 0.03 0.03 0.04 0.04 0.05 0.04 0.04 0.04 0.03 0.03
0.02 0.02 0.02 0.03 0.03 0.05 0.06 0.05 0.06 0.05 0.05 0.07 0.08 0.07 0.06 0.05 0.04 0.03 0.02 0.01 0.02 0.02 0.01 0.01 0.01 0.01 0.01 0.01 0.01 0.01 0.01 0.02 0.02 0.02 0.02 0.02 0.03 0.04 0.04 0.04 0.03 0.03 0.03
0.02 0.02 0.03 0.03 0.04 0.04 0.05 0.06 0.05 0.05 0.05 0.05 0.06 0.05 0.05 0.05 0.04 0.04 0.03 0.03 0.03 0.03 0.03 0.02 0.01 0.01 0.01 0.01 0.01 0.01 0.02 0.02 0.02 0.02 0.02 0.02 0.02 0.02 0.03 0.03 0.02 0.03 0.03
0.02 0.02 0.02 0.03 0.03 0.04 0.04 0.05 0.05 0.05 0.04 0.04 0.04 0.05 0.04 0.04 0.05 0.04 0.04 0.03 0.02 0.03 0.02 0.02 0.02 0.02 0.02 0.02 0.02 0.02 0.02 0.02 0.02 0.03 0.03 0.03 0.04 0.03 0.03 0.03 0.02 0.02 0.02
0.01 0.01 0.01 0.02 0.02 0.02 0.03 0.03 0.04 0.04 0.04 0.04 0.04 0.04 0.04 0.04 0.05 0.05 0.04 0.03 0.02 0.02 0.02 0.02 0.02 0.02 0.02 0.03 0.03 0.02 0.03 0.03 0.03 0.03 0.03 0.03 0.04 0.04 0.04 0.03 0.04 0.04 0.03
0.01 0.01 0.01 0.01 0.02 0.02 0.02 0.02 0.03 0.03 0.03 0.04 0.04 0.04 0.04 0.04 0.05 0.05 0.05 0.04 0.04 0.03 0.03 0.03 0.03 0.02 0.02 0.02 0.02 0.03 0.03 0.05 0.05 0.05 0.05 0.05 0.04 0.04 0.04 0.04 0.03 0.04 0.04
0.01 0.02 0.02 0.02 0.02 0.02 0.02 0.02 0.03 0.03 0.03 0.04 0.04 0.04 0.04 0.04 0.05 0.05 0.05 0.04 0.04 0.04 0.04 0.03 0.03 0.03 0.03 0.03 0.03 0.04 0.05 0.06 0.06 0.06 0.06 0.05 0.05 0.05 0.05 0.05 0.05 0.04 0.04
0.02 0.03 0.03 0.03 0.03 0.03 0.03 0.03 0.02 0.02 0.03 0.04 0.04 0.04 0.04 0.03 0.04 0.06 0.06 0.05 0.04 0.04 0.04 0.04 0.03 0.03 0.04 0.04 0.04 0.05 0.05 0.05 0.06 0.07 0.06 0.06 0.06 0.05 0.05 0.05 0.05 0.05 0.05
0.02 0.01 0.02 0.03 0.03 0.03 0.03 0.02 0.02 0.02 0.03 0.03 0.03 0.03 0.02 0.03 0.03 0.04 0.06 0.07 0.07 0.05 0.05 0.04 0.04 0.03 0.03 0.04 0.04 0.04 0.04 0.04 0.05 0.05 0.05 0.05 0.05 0.06 0.05 0.04 0.04 0.05 0.05
0.02 0.02 0.02 0.03 0.03 0.03 0.03 0.03 0.03 0.03 0.02 0.02 0.02 0.02 0.02 0.02 0.02 0.02 0.03 0.04 0.05 0.06 0.07 0.06 0.05 0.04 0.04 0.04 0.03 0.03 0.03 0.03 0.03 0.03 0.03 0.04 0.04 0.04 0.05 0.05 0.05 0.06 0.06
0.01 0.01 0.01 0.01 0.02 0.03 0.04 0.03 0.03 0.02 0.02 0.01 0.01 0.01 0.01 0.01 0.01 0.01 0.02 0.02 0.03 0.04 0.05 0.06 0.08 0.07 0.05 0.04 0.04 0.03 0.03 0.03 0.03 0.02 0.02 0.03 0.03 0.03 0.03 0.04 0.05 0.05 0.05
0.01 0.01 0.01 0.02 0.02 0.03 0.04 0.04 0.03 0.03 0.02 0.02 0.02 0.02 0.02 0.02 0.01 0.01 0.01 0.01 0.02 0.03 0.04 0.04 0.05 0.07 0.07 0.04 0.03 0.03 0.03 0.03 0.02 0.02 0.02 0.02 0.03 0.03 0.03 0.03 0.02 0.03 0.03
MSLP
1008.82 1009.34 1009.87 1010.34 1010.70 1010.94 1011.06 1011.11 1011.11 1011.12 1011.19 1011.36 1011.64 1012.03 1012.51 1013.03 1013.58 1014.11 1014.60 1015.04 1015.42 1015.76 1016.08 1016.40 1016.75 1017.15 1017.61 1018.13 1018.71 1019.33 1019.97 1020.61 1021.21 1021.76 1022.23 1022.61 1022.89 1023.09 1023.21 1023.29 1023.35 1023.40 1023.46
1008.68 1009.17 1009.69 1010.18 1010.59 1010.92 1011.14 1011.30 1011.41 1011.52 1011.66 1011.89 1012.19 1012.58 1013.04 1013.54 1014.06 1014.55 1015.00 1015.40 1015.74 1016.04 1016.32 1016.59 1016.89 1017.23 1017.63 1018.10 1018.64 1019.23 1019.85 1020.47 1021.08 1021.63 1022.10 1022.49 1022.78 1022.98 1023.10 1023.17 1023.21 1023.23 1023.26
1008.70 1009.12 1009.59 1010.07 1010.51 1010.88 1011.19 1011.44 1011.65 1011.86 1012.10 1012.37 1012.71 1013.11 1013.55 1014.02 1014.48 1014.93 1015.33 1015.68 1015.98 1016.24 1016.48 1016.72 1016.98 1017.29 1017.65 1018.09 1018.59 1019.15 1019.74 1020.34 1020.92 1021.46 1021.93 1022.31 1022.60 1022.81 1022.93 1023.00 1023.03 1023.03 1023.04
1008.84 1009.16 1009.56 1009.99 1010.42 1010.82 1011.20 1011.53 1011.85 1012.16 1012.48 1012.83 1013.21 1013.62 1014.05 1014.47 1014.88 1015.26 1015.60 1015.90 1016.14 1016.37 1016.57 1016.78 1017.02 1017.31 1017.65 1018.06 1018.53 1019.05 1019.60 1020.17 1020.72 1021.23 1021.68 1022.06 1022.35 1022.56 1022.69 1022.77 1022.80 1022.81 1022.80
1009.02 1009.23 1009.53 1009.90 1010.30 1010.72 1011.14 1011.56 1011.97 1012.39 1012.81 1013.23 1013.66 1014.09 1014.50 1014.89 1015.25 1015.57 1015.84 1016.07 1016.27 1016.45 1016.62 1016.81 1017.03 1017.30 1017.62 1018.00 1018.43 1018.91 1019.42 1019.94 1020.45 1020.92 1021.35 1021.71 1022.01 1022.23 1022.39 1022.49 1022.54 1022.56 1022.55
1009.18 1009.27 1009.48 1009.77 1010.14 1010.56 1011.02 1011.50 1012.00 1012.51 1013.02 1013.53 1014.01 1014.46 1014.88 1015.24 1015.55 1015.81 1016.02 1016.20 1016.34 1016.48 1016.63 1016.79 1016.99 1017.24 1017.54 1017.89 1018.28 1018.72 1019.17 1019.64 1020.10 1020.54 1020.94 1021.30 1021.60 1021.84 1022.03 1022.16 1022.25 1022.29 1022.30
1009.28 1009.28 1009.39 1009.61 1009.93 1010.33 1010.81 1011.34 1011.91 1012.50 1013.09 1013.66 1014.20 1014.68 1015.10 1015.45 1015.73 1015.95 1016.11 1016.24 1016.35 1016.46 1016.58 1016.73 1016.92 1017.15 1017.42 1017.74 1018.09 1018.48 1018.88 1019.29 1019.70 1020.10 1020.48 1020.82 1021.13 1021.40 1021.63 1021.81 1021.94 1022.02 1022.05
1009.33 1009.24 1009.26 1009.41 1009.68 1010.05 1010.52 1011.07 1011.67 1012.31 1012.95 1013.57 1014.15 1014.66 1015.09 1015.44 1015.71 1015.91 1016.05 1016.16 1016.26 1016.35 1016.47 1016.62 1016.80 1017.01 1017.27 1017.56 1017.87 1018.21 1018.56 1018.92 1019.28 1019.64 1020.00 1020.34 1020.66 1020.95 1021.21 1021.44 1021.61 1021.74 1021.81
1009.33 1009.18 1009.13 1009.21 1009.41 1009.74 1010.17 1010.70 1011.29 1011.94 1012.59 1013.23 1013.82 1014.34 1014.78 1015.14 1015.42 1015.63 1015.78 1015.91 1016.02 1016.13 1016.27 1016.43 1016.62 1016.84 1017.09 1017.36 1017.64 1017.94 1018.25 1018.57 1018.89 1019.22 1019.54 1019.87 1020.20 1020.51 1020.80 1021.06 1021.28 1021.44 1021.55
1009.30 1009.11 1009.01 1009.02 1009.15 1009.40 1009.77 1010.24 1010.78 1011.38 1012.00 1012.62 1013.19 1013.71 1014.16 1014.54 1014.84 1015.09 1015.28 1015.46 1015.62 1015.78 1015.96 1016.16 1016.38 1016.62 1016.88 1017.14 1017.42 1017.70 1017.98 1018.26 1018.55 1018.85 1019.15 1019.46 1019.78 1020.09 1020.39 1020.67 1020.92 1021.11 1021.25
1009.25 1009.04 1008.90 1008.85 1008.90 1009.06 1009.33 1009.70 1010.15 1010.66 1011.21 1011.76 1012.30 1012.80 1013.25 1013.65 1014.00 1014.30 1014.56 1014.81 1015.05 1015.29 1015.54 1015.80 1016.07 1016.35 1016.64 1016.92 1017.20 1017.47 1017.74 1018.01 1018.28 1018.55 1018.83 1019.12 1019.41 1019.71 1020.00 1020.28 1020.53 1020.74 1020.91
1009.17 1008.95 1008.78 1008.68 1008.65 1008.71 1008.86 1009.11 1009.43 1009.82 1010.26 1010.73 1011.20 1011.67 1012.12 1012.54 1012.94 1013.31 1013.67 1014.01 1014.35 1014.68 1015.02 1015.36 1015.69 1016.03 1016.35 1016.66 1016.96 1017.25 1017.52 1017.79 1018.05 1018.30 1018.56 1018.82 1019.08 1019.35 1019.61 1019.86 1020.10 1020.32 1020.49
1009.04 1008.82 1008.63 1008.47 1008.37 1008.33 1008.36 1008.47 1008.66 1008.91 1009.22 1009.59 1009.99 1010.42 1010.86 1011.31 1011.77 1012.22 1012.67 1013.11 1013.55 1013.99 1014.41 1014.83 1015.23 1015.62 1015.99 1016.34 1016.67 1016.98 1017.28 1017.55 1017.81 1018.06 1018.31 1018.54 1018.77 1018.99 1019.21 1019.43 1019.63 1019.83 1020.01
1008.84 1008.63 1008.42 1008.22 1008.05 1007.92 1007.84 1007.82 1007.87 1007.99 1008.19 1008.45 1008.78 1009.18 1009.61 1010.09 1010.60 1011.12 1011.66 1012.19 1012.72 1013.24 1013.74 1014.21 1014.67 1015.10 1015.51 1015.90 1016.26 1016.61 1016.93 1017.23 1017.51 1017.77 1018.01 1018.23 1018.43 1018.61 1018.79 1018.96 1019.13 1019.29 1019.45
1008.57 1008.36 1008.13 1007.90 1007.68 1007.48 1007.31 1007.19 1007.13 1007.14 1007.24 1007.42 1007.70 1008.06 1008.50 1008.99 1009.54 1010.12 1010.72 1011.32 1011.91 1012.47 1013.01 1013.51 1013.99 1014.44 1014.87 1015.28 1015.67 1016.05 1016.41 1016.75 1017.06 1017.35 1017.60 1017.82 1018.01 1018.17 1018.31 1018.45 1018.57 1018.70 1018.85
1008.26 1008.05 1007.81 1007.56 1007.31 1007.06 1006.83 1006.64 1006.51 1006.45 1006.48 1006.61 1006.85 1007.19 1007.62 1008.14 1008.70 1009.31 1009.94 1010.55 1011.15 1011.71 1012.24 1012.72 1013.18 1013.61 1014.02 1014.42 1014.83 1015.23 1015.63 1016.02 1016.38 1016.72 1017.01 1017.26 1017.47 1017.63 1017.76 1017.87 1017.98 1018.08 1018.20
1007.99 1007.76 1007.52 1007.26 1006.99 1006.73 1006.48 1006.26 1006.09 1006.00 1006.00 1006.10 1006.32 1006.64 1007.07 1007.58 1008.14 1008.74 1009.34 1009.92 1010.47 1010.97 1011.43 1011.84 1012.22 1012.59 1012.95 1013.32 1013.72 1014.14 1014.57 1015.00 1015.43 1015.83 1016.19 1016.50 1016.75 1016.95 1017.10 1017.22 1017.32 1017.42 1017.53
1007.84 1007.59 1007.34 1007.09 1006.82 1006.57 1006.32 1006.11 1005.94 1005.85 1005.84 1005.94 1006.14 1006.46 1006.86 1007.34 1007.87 1008.41 1008.94 1009.44 1009.88 1010.27 1010.60 1010.88 1011.14 1011.40 1011.68 1011.99 1012.35 1012.77 1013.22 1013.71 1014.20 1014.69 1015.13 1015.52 1015.85 1016.11 1016.32 1016.48 1016.60 1016.71 1016.82
1007.87 1007.61 1007.36 1007.12 1006.88 1006.65 1006.44 1006.25 1006.11 1006.03 1006.04 1006.14 1006.33 1006.62 1006.99 1007.42 1007.87 1008.31 1008.73 1009.09 1009.38 1009.60 1009.76 1009.88 1009.99 1010.10 1010.26 1010.50 1010.81 1011.20 1011.67 1012.20 1012.76 1013.32 1013.86 1014.34 1014.77 1015.12 1015.40 1015.62 1015.79 1015.94 1016.07
1008.16 1007.89 1007.65 1007.43 1007.22 1007.03 1006.86 1006.71 1006.60 1006.55 1006.57 1006.67 1006.85 1007.11 1007.42 1007.76 1008.10 1008.42 1008.68 1008.87 1008.98 1009.01 1008.98 1008.91 1008.83 1008.80 1008.83 1008.96 1009.20 1009.56 1010.02 1010.58 1011.19 1011.82 1012.44 1013.02 1013.54 1013.98 1014.34 1014.64 1014.88 1015.08 1015.25
1008.70 1008.43 1008.21 1008.02 1007.85 1007.70 1007.57 1007.46 1007.39 1007.36 1007.39 1007.47 1007.62 1007.83 1008.06 1008.30 1008.51 1008.68 1008.78 1008.79 1008.70 1008.53 1008.30 1008.04 1007.80 1007.61 1007.50 1007.53 1007.70 1008.01 1008.46 1009.02 1009.65 1010.33 1011.01 1011.66 1012.25 1012.76 1013.20 1013.57 1013.88 1014.13 1014.36
1009.48 1009.23 1009.02 1008.86 1008.73 1008.61 1008.52 1008.44 1008.39 1008.37 1008.39 1008.46 1008.57 1008.70 1008.84 1008.97 1009.05 1009.07 1009.00 1008.83 1008.56 1008.21 1007.81 1007.39 1007.00 1006.67 1006.46 1006.39 1006.48 1006.74 1007.15 1007.68 1008.31 1009.00 1009.69 1010.37 1010.99 1011.55 1012.03 1012.45 1012.81 1013.11 1013.39
1010.43 1010.20 1010.03 1009.89 1009.79 1009.70 1009.62 1009.56 1009.52 1009.50 1009.50 1009.53 1009.58 1009.64 1009.69 1009.71 1009.67 1009.55 1009.34 1009.02 1008.61 1008.12 1007.59 1007.05 1006.55 1006.13 1005.83 1005.69 1005.72 1005.91 1006.27 1006.75 1007.34 1007.98 1008.64 1009.29 1009.89 1010.44 1010.92 1011.35 1011.72 1012.06 1012.37
1011.47 1011.27 1011.12 1011.01 1010.92 1010.85 1010.78 1010.72 1010.67 1010.63 1010.61 1010.59 1010.59 1010.58 1010.54 1010.46 1010.32 1010.10 1009.78 1009.36 1008.86 1008.28 1007.68 1007.07 1006.52 1006.05 1005.70 1005.51 1005.48 1005.62 1005.90 1006.32 1006.82 1007.38 1007.95 1008.52 1009.04 1009.52 1009.95 1010.34 1010.69 1011.02 1011.35
1012.53 1012.36 1012.23 1012.13 1012.05 1011.98 1011.91 1011.84 1011.77 1011.70 1011.65 1011.59 1011.53 1011.46 1011.36 1011.21 1010.99 1010.70 1010.32 1009.85 1009.30 1008.70 1008.07 1007.46 1006.89 1006.41 1006.05 1005.84 1005.78 1005.86 1006.07 1006.39 1006.78 1007.22 1007.66 1008.09 1008.49 1008.86 1009.18 1009.49 1009.78 1010.07 1010.38
1013.55 1013.41 1013.30 1013.20 1013.12 1013.04 1012.95 1012.86 1012.77 1012.67 1012.58 1012.49 1012.39 1012.27 1012.12 1011.92 1011.66 1011.33 1010.93 1010.44 1009.90 1009.31 1008.71 1008.12 1007.59 1007.14 1006.80 1006.58 1006.50 1006.53 1006.66 1006.88 1007.15 1007.44 1007.73 1008.00 1008.24 1008.45 1008.64 1008.83 1009.02 1009.24 1009.51
Thickness
5686 5686 5685 5685 5685 5684 5684 5684 5684 5684 5684 5684 5684 5684 5684 5684 5684 5684 5684 5684 5683 5682 5681 5681 5680 5679 5678 5677 5676 5675 5674 5673 5671 5673 5674 5675 5677 5678 5679 5680 5681 5682 5683
5680 5680 5679 5679 5678 5678 5677 5678 5678 5678 5678 5679 5679 5680 5680 5679 5679 5680 5679 5679 5679 5678 5677 5677 5676 5676 5674 5673 5672 5671 5670 5670 5669 5668 5669 5670 5672 5673 5675 5676 5677 5678 5678
5675 5674 5673 5672 5672 5671 5671 5671 5672 5672 5673 5674 5674 5674 5675 5675 5675 5676 5675 5675 5675 5674 5673 5673 5673 5672 5670 5669 5668 5667 5666 5667 5665 5664 5664 5665 5666 5668 5669 5671 5672 5673 5674
5669 5668 5667 5666 5666 5666 5666 5666 5666 5667 5668 5668 5669 5669 5670 5670 5671 5671 5670 5670 5670 5669 5669 5669 5668 5668 5667 5665 5664 5663 5662 5661 5660 5659 5659 5659 5660 5661 5662 5664 5665 5666 5667
5663 5662 5662 5661 5661 5660 5660 5661 5661 5662 5663 5663 5664 5664 5665 5666 5666 5666 5665 5665 5665 5664 5664 5664 5664 5664 5664 5662 5661 5659 5657 5656 5655 5654 5654 5654 5654 5655 5656 5657 5658 5659 5661
5658 5657 5657 5656 5656 5655 5655 5656 5656 5657 5657 5658 5659 5659 5660 5661 5662 5662 5661 5660 5660 5659 5658 5658 5659 5659 5659 5657 5657 5656 5655 5652 5651 5650 5649 5649 5650 5651 5651 5652 5651 5652 5654
5653 5652 5651 5651 5650 5650 5651 5651 5651 5652 5652 5653 5654 5655 5655 5656 5656 5657 5656 5655 5655 5654 5654 5653 5654 5655 5653 5652 5651 5650 5649 5649 5649 5647 5646 5646 5646 5647 5646 5646 5646 5646 5647
5647 5646 5646 5646 5645 5645 5645 5646 5646 5647 5647 5648 5650 5651 5650 5651 5652 5652 5651 5650 5649 5649 5649 5649 5648 5648 5648 5647 5646 5645 5644 5644 5643 5643 5643 5643 5643 5643 5643 5643 5642 5641 5642
5641 5641 5641 5641 5640 5639 5639 5641 5641 5642 5642 5643 5645 5646 5646 5647 5648 5647 5646 5645 5645 5644 5644 5644 5644 5643 5643 5642 5640 5639 5638 5638 5638 5638 5638 5638 5638 5638 5638 5637 5636 5636 5637
5637 5637 5637 5637 5636 5635 5635 5636 5637 5637 5638 5639 5640 5642 5642 5643 5644 5643 5642 5642 5640 5640 5639 5639 5639 5639 5638 5637 5636 5635 5634 5634 5633 5632 5632 5632 5632 5632 5632 5632 5632 5630 5631
5634 5633 5633 5632 5631 5632 5632 5632 5632 5633 5633 5634 5636 5637 5638 5639 5639 5639 5639 5638 5637 5636 5636 5635 5636 5635 5634 5633 5632 5631 5631 5630 5628 5627 5627 5627 5627 5626 5626 5626 5627 5627 5626
5629 5628 5628 5627 5627 5628 5627 5627 5628 5628 5628 5629 5630 5632 5633 5634 5635 5635 5635 5634 5634 5633 5633 5632 5632 5631 5630 5628 5627 5627 5626 5624 5623 5622 5621 5621 5621 5621 5621 5621 5621 5621 5622
5623 5622 5622 5622 5621 5621 5621 5621 5622 5622 5623 5624 5625 5626 5628 5629 5631 5631 5631 5630 5629 5629 5629 5629 5627 5626 5625 5624 5623 5622 5620 5619 5618 5617 5616 5616 5616 5615 5615 5615 5615 5615 5615
5616 5616 5616 5615 5615 5615 5615 5616 5616 5617 5618 5619 5620 5621 5623 5624 5626 5627 5627 5626 5625 5624 5624 5623 5622 5621 5620 5619 5618 5617 5616 5615 5614 5613 5612 5611 5610 5609 5608 5608 5608 5608 5608
5610 5610 5610 5610 5609 5608 5608 5609 5610 5611 5613 5614 5615 5617 5618 5620 5622 5623 5623 5623 5622 5621 5619 5618 5617 5616 5615 5614 5613 5612 5611 5609 5608 5607 5606 5605 5604 5602 5602 5601 5600 5600 5600
5604 5604 5604 5603 5602 5602 5602 5604 5605 5606 5608 5609 5610 5611 5613 5615 5617 5617 5618 5618 5617 5615 5614 5614 5613 5612 5611 5610 5609 5607 5606 5604 5603 5602 5600 5599 5597 5596 5595 5594 5594 5594 5594
5599 5598 5597 5597 5597 5596 5597 5598 5599 5601 5602 5603 5604 5606 5608 5610 5611 5611 5611 5611 5610 5609 5609 5609 5608 5608 5606 5605 5603 5602 5601 5599 5597 5595 5594 5593 5591 5590 5589 5588 5588 5588 5588
5593 5592 5592 5591 5592 5592 5592 5593 5593 5595 5596 5597 5599 5600 5602 5603 5604 5604 5604 5603 5603 5602 5603 5603 5603 5602 5601 5599 5598 5597 5596 5594 5591 5590 5589 5587 5586 5585 5584 5583 5582 5581 5582
5588 5587 5586 5586 5586 5587 5587 5587 5588 5589 5589 5590 5592 5594 5595 5596 5597 5597 5597 5597 5598 5597 5597 5596 5596 5595 5594 5593 5592 5590 5589 5588 5586 5584 5583 5582 5580 5579 5578 5578 5577 5574 5574
5583 5582 5582 5581 5581 5581 5581 5582 5583 5583 5584 5585 5587 5588 5589 5589 5590 5590 5589 5590 5590 5590 5590 5589 5588 5587 5586 5586 5584 5583 5582 5580 5579 5578 5577 5575 5574 5573 5572 5571 5570 5569 5569
5578 5577 5577 5576 5576 5576 5576 5576 5577 5577 5578 5579 5580 5581 5581 5583 5584 5584 5583 5582 5583 5583 5582 5582 5581 5580 5579 5578 5577 5576 5575 5574 5573 5572 5570 5569 5567 5566 5565 5564 5563 5563 5562
5572 5571 5570 5570 5570 5570 5570 5570 5570 5571 5572 5573 5574 5574 5574 5575 5577 5577 5576 5576 5576 5575 5575 5574 5574 5572 5571 5570 5569 5568 5567 5566 5565 5564 5563 5562 5561 5560 5558 5556 5556 5555 5554
5567 5566 5565 5565 5564 5564 5564 5564 5565 5565 5567 5568 5568 5568 5568 5568 5569 5569 5569 5569 5568 5568 5567 5567 5566 5565 5564 5563 5562 5560 5559 5559 5558 5557 5556 5555 5554 5552 5550 5549 5548 5547 5546
5561 5561 5560 5559 5559 5558 5559 5559 5559 5560 5561 5561 5561 5561 5562 5562 5562 5562 5562 5561 5561 5560 5559 5559 5558 5557 5556 5555 5554 5552 5551 5551 5550 5549 5548 5547 5546 5545 5543 5542 5540 5539 5538
5554 5554 5554 5553 5552 5552 5552 5552 5553 5553 5553 5553 5554 5554 5554 5555 5555 5555 5554 5553 5553 5552 5551 5551 5549 5548 5547 5547 5546 5545 5544 5544 5543 5541 5540 5539 5538 5537 5535 5534 5532 5531 5529
5548 5547 5547 5547 5546 5546 5546 5546 5546 5546 5546 5547 5547 5547 5546 5546 5547 5547 5546 5546 5545 5544 5543 5542 5541 5541 5540 5539 5538 5538 5537 5536 5535 5533 5532 5531 5530 5529 5527 5526 5524 5522 5521